QPF
0.00 0.00 0.00 0.00 0.00 0.00 0.00 0.00 0.00 0.00 0.00 0.00 0.00 0.00 0.00 0.00 0.00 0.00 0.00 0.00 0.00 0.00 0.00 0.01 0.01 0.01 0.01 0.01 0.01 0.01 0.01 0.01 0.01 0.01 0.01 0.00 0.00 0.00 0.00 0.00 0.00 0.00 0.00 0.00 0.00 0.00 0.00 0.00 0.00
0.00 0.00 0.00 0.00 0.00 0.00 0.00 0.00 0.00 0.00 0.00 0.00 0.00 0.00 0.00 0.00 0.00 0.00 0.00 0.00 0.00 0.00 0.00 0.00 0.01 0.01 0.01 0.01 0.01 0.01 0.01 0.01 0.00 0.00 0.01 0.01 0.01 0.00 0.00 0.00 0.00 0.00 0.00 0.00 0.00 0.00 0.00 0.00 0.00
0.00 0.00 0.00 0.00 0.00 0.00 0.00 0.00 0.00 0.00 0.00 0.00 0.00 0.00 0.00 0.00 0.00 0.00 0.00 0.00 0.00 0.00 0.00 0.00 0.00 0.01 0.01 0.01 0.01 0.01 0.01 0.01 0.00 0.00 0.01 0.01 0.00 0.00 0.00 0.00 0.00 0.00 0.00 0.00 0.00 0.00 0.00 0.00 0.00
0.00 0.00 0.00 0.00 0.00 0.00 0.00 0.00 0.00 0.00 0.00 0.00 0.00 0.00 0.00 0.00 0.00 0.00 0.00 0.00 0.00 0.00 0.00 0.00 0.00 0.01 0.01 0.01 0.01 0.01 0.00 0.01 0.01 0.01 0.00 0.00 0.00 0.00 0.00 0.00 0.00 0.00 0.00 0.00 0.00 0.00 0.00 0.00 0.00
0.00 0.00 0.00 0.00 0.00 0.00 0.00 0.00 0.00 0.00 0.00 0.00 0.00 0.00 0.00 0.00 0.00 0.00 0.00 0.00 0.00 0.00 0.00 0.00 0.00 0.01 0.01 0.01 0.01 0.01 0.00 0.01 0.01 0.00 0.00 0.00 0.00 0.00 0.00 0.00 0.00 0.00 0.00 0.00 0.00 0.00 0.00 0.00 0.00
0.00 0.00 0.00 0.00 0.00 0.00 0.00 0.00 0.00 0.00 0.00 0.00 0.00 0.00 0.00 0.00 0.00 0.00 0.00 0.00 0.00 0.00 0.00 0.00 0.01 0.01 0.01 0.01 0.01 0.01 0.00 0.01 0.01 0.01 0.00 0.00 0.00 0.00 0.00 0.00 0.00 0.00 0.00 0.00 0.00 0.00 0.00 0.00 0.00
0.00 0.00 0.00 0.00 0.00 0.00 0.00 0.00 0.00 0.00 0.00 0.00 0.00 0.00 0.00 0.00 0.00 0.00 0.00 0.00 0.00 0.00 0.00 0.00 0.00 0.01 0.01 0.01 0.01 0.01 0.01 0.01 0.01 0.01 0.01 0.00 0.00 0.00 0.00 0.00 0.00 0.00 0.00 0.00 0.00 0.00 0.00 0.00 0.00
0.00 0.00 0.00 0.00 0.00 0.00 0.00 0.00 0.00 0.00 0.00 0.00 0.00 0.00 0.00 0.00 0.00 0.00 0.00 0.00 0.00 0.00 0.00 0.00 0.00 0.00 0.01 0.01 0.01 0.01 0.01 0.01 0.01 0.01 0.01 0.01 0.01 0.00 0.00 0.00 0.00 0.00 0.00 0.00 0.00 0.00 0.00 0.00 0.00
0.00 0.00 0.00 0.00 0.00 0.00 0.00 0.00 0.00 0.00 0.00 0.00 0.00 0.00 0.00 0.00 0.00 0.00 0.00 0.00 0.00 0.00 0.00 0.00 0.00 0.00 0.00 0.01 0.01 0.01 0.01 0.01 0.01 0.01 0.01 0.01 0.00 0.00 0.00 0.00 0.00 0.00 0.00 0.00 0.00 0.00 0.00 0.00 0.00
0.00 0.00 0.00 0.00 0.00 0.00 0.00 0.00 0.00 0.00 0.00 0.00 0.00 0.00 0.00 0.00 0.00 0.00 0.00 0.00 0.00 0.00 0.00 0.00 0.00 0.00 0.00 0.00 0.01 0.01 0.01 0.01 0.01 0.00 0.00 0.00 0.00 0.00 0.00 0.00 0.00 0.00 0.00 0.00 0.00 0.00 0.00 0.00 0.00
0.00 0.00 0.00 0.00 0.00 0.00 0.00 0.00 0.00 0.00 0.00 0.00 0.00 0.00 0.00 0.00 0.00 0.00 0.00 0.00 0.00 0.00 0.00 0.00 0.00 0.00 0.00 0.00 0.00 0.01 0.01 0.00 0.00 0.00 0.00 0.00 0.00 0.00 0.00 0.00 0.00 0.00 0.00 0.00 0.00 0.00 0.00 0.00 0.00
0.00 0.00 0.00 0.00 0.00 0.00 0.00 0.00 0.00 0.00 0.00 0.00 0.00 0.00 0.00 0.00 0.00 0.00 0.00 0.00 0.00 0.00 0.00 0.00 0.00 0.00 0.00 0.00 0.00 0.00 0.00 0.00 0.01 0.01 0.00 0.00 0.00 0.00 0.00 0.00 0.00 0.00 0.00 0.00 0.00 0.00 0.00 0.00 0.00
0.00 0.00 0.00 0.00 0.00 0.00 0.00 0.00 0.00 0.00 0.00 0.00 0.00 0.00 0.00 0.00 0.00 0.00 0.00 0.00 0.00 0.00 0.00 0.00 0.00 0.00 0.00 0.00 0.00 0.00 0.00 0.01 0.01 0.01 0.01 0.01 0.00 0.00 0.00 0.00 0.00 0.00 0.00 0.00 0.00 0.00 0.00 0.00 0.00
0.00 0.00 0.00 0.00 0.00 0.00 0.00 0.00 0.00 0.00 0.00 0.00 0.00 0.00 0.00 0.00 0.00 0.00 0.00 0.00 0.00 0.00 0.00 0.00 0.00 0.00 0.00 0.00 0.00 0.00 0.00 0.01 0.01 0.01 0.01 0.01 0.01 0.01 0.00 0.00 0.00 0.00 0.00 0.00 0.00 0.00 0.00 0.00 0.00
0.00 0.00 0.00 0.00 0.00 0.00 0.00 0.00 0.00 0.00 0.00 0.00 0.00 0.00 0.00 0.00 0.00 0.00 0.00 0.00 0.00 0.00 0.00 0.00 0.00 0.00 0.00 0.00 0.00 0.00 0.00 0.00 0.01 0.01 0.00 0.00 0.01 0.00 0.00 0.00 0.00 0.00 0.00 0.00 0.00 0.00 0.00 0.00 0.00
0.00 0.00 0.00 0.00 0.00 0.00 0.00 0.00 0.00 0.00 0.00 0.00 0.00 0.00 0.00 0.00 0.00 0.00 0.00 0.00 0.00 0.00 0.00 0.00 0.00 0.00 0.00 0.00 0.00 0.00 0.00 0.00 0.00 0.00 0.00 0.00 0.00 0.00 0.00 0.00 0.00 0.00 0.00 0.00 0.00 0.00 0.00 0.00 0.00
0.00 0.00 0.00 0.00 0.00 0.00 0.00 0.00 0.00 0.00 0.00 0.00 0.00 0.00 0.00 0.00 0.00 0.00 0.00 0.00 0.00 0.00 0.00 0.00 0.00 0.00 0.00 0.00 0.00 0.00 0.00 0.00 0.00 0.00 0.00 0.00 0.00 0.00 0.00 0.00 0.00 0.00 0.00 0.00 0.00 0.00 0.00 0.00 0.00
0.00 0.00 0.00 0.00 0.00 0.00 0.00 0.00 0.00 0.00 0.00 0.00 0.00 0.00 0.00 0.00 0.00 0.00 0.00 0.00 0.00 0.00 0.00 0.00 0.00 0.00 0.00 0.00 0.00 0.00 0.00 0.00 0.00 0.00 0.00 0.00 0.00 0.00 0.00 0.00 0.00 0.01 0.01 0.00 0.00 0.00 0.00 0.00 0.00
0.00 0.00 0.00 0.00 0.00 0.00 0.00 0.00 0.00 0.00 0.00 0.00 0.00 0.00 0.00 0.00 0.00 0.00 0.00 0.00 0.00 0.00 0.00 0.00 0.00 0.00 0.00 0.00 0.00 0.00 0.00 0.00 0.00 0.00 0.00 0.00 0.00 0.00 0.00 0.00 0.00 0.00 0.00 0.00 0.00 0.00 0.00 0.00 0.00
0.00 0.00 0.00 0.00 0.00 0.00 0.00 0.00 0.00 0.00 0.00 0.00 0.00 0.00 0.00 0.00 0.00 0.00 0.00 0.00 0.00 0.00 0.00 0.00 0.00 0.00 0.00 0.00 0.00 0.00 0.00 0.00 0.00 0.00 0.00 0.00 0.00 0.00 0.00 0.00 0.00 0.00 0.00 0.00 0.00 0.00 0.00 0.00 0.00
0.00 0.00 0.00 0.00 0.00 0.00 0.00 0.00 0.00 0.00 0.00 0.00 0.00 0.00 0.00 0.00 0.00 0.00 0.00 0.00 0.00 0.00 0.00 0.00 0.00 0.00 0.00 0.00 0.00 0.00 0.00 0.00 0.00 0.00 0.00 0.00 0.00 0.00 0.00 0.00 0.00 0.00 0.00 0.00 0.00 0.00 0.00 0.00 0.00
0.00 0.00 0.00 0.00 0.00 0.00 0.00 0.00 0.00 0.00 0.00 0.00 0.00 0.00 0.00 0.00 0.00 0.00 0.00 0.00 0.00 0.00 0.00 0.00 0.00 0.00 0.00 0.00 0.00 0.00 0.00 0.00 0.00 0.00 0.00 0.00 0.00 0.00 0.00 0.00 0.00 0.00 0.00 0.00 0.00 0.00 0.00 0.00 0.00
0.00 0.00 0.00 0.00 0.00 0.00 0.00 0.00 0.00 0.00 0.00 0.00 0.00 0.00 0.00 0.00 0.00 0.00 0.00 0.00 0.00 0.00 0.00 0.00 0.00 0.00 0.00 0.00 0.00 0.00 0.00 0.00 0.00 0.00 0.00 0.00 0.00 0.00 0.00 0.00 0.00 0.00 0.00 0.00 0.00 0.00 0.00 0.00 0.00
0.00 0.00 0.00 0.00 0.00 0.00 0.00 0.00 0.00 0.00 0.00 0.00 0.00 0.00 0.00 0.00 0.00 0.00 0.00 0.00 0.00 0.00 0.00 0.00 0.00 0.00 0.00 0.00 0.00 0.00 0.00 0.00 0.00 0.00 0.00 0.00 0.00 0.00 0.00 0.00 0.00 0.00 0.00 0.00 0.00 0.00 0.00 0.00 0.00
0.00 0.00 0.00 0.00 0.00 0.00 0.00 0.00 0.00 0.00 0.00 0.00 0.00 0.00 0.00 0.00 0.00 0.00 0.00 0.00 0.00 0.00 0.00 0.00 0.00 0.00 0.00 0.00 0.00 0.00 0.00 0.00 0.00 0.00 0.00 0.00 0.00 0.00 0.00 0.00 0.00 0.00 0.00 0.00 0.00 0.00 0.00 0.00 0.00
0.00 0.00 0.00 0.00 0.00 0.00 0.00 0.00 0.00 0.00 0.00 0.00 0.00 0.00 0.00 0.00 0.00 0.00 0.00 0.00 0.00 0.00 0.00 0.00 0.00 0.00 0.00 0.00 0.00 0.00 0.00 0.00 0.00 0.00 0.00 0.00 0.00 0.00 0.00 0.00 0.00 0.00 0.00 0.00 0.00 0.00 0.00 0.00 0.00
0.00 0.00 0.00 0.00 0.00 0.00 0.00 0.00 0.00 0.00 0.00 0.00 0.00 0.00 0.00 0.00 0.00 0.00 0.00 0.00 0.00 0.00 0.00 0.00 0.00 0.00 0.00 0.00 0.00 0.00 0.00 0.00 0.00 0.00 0.00 0.00 0.00 0.00 0.00 0.00 0.00 0.00 0.00 0.00 0.00 0.00 0.00 0.00 0.00
0.00 0.00 0.00 0.00 0.00 0.00 0.00 0.00 0.00 0.00 0.00 0.00 0.00 0.00 0.00 0.00 0.00 0.00 0.00 0.00 0.00 0.00 0.00 0.00 0.00 0.00 0.00 0.00 0.00 0.00 0.00 0.00 0.00 0.00 0.00 0.00 0.00 0.00 0.00 0.00 0.00 0.00 0.00 0.00 0.00 0.00 0.00 0.00 0.00
0.00 0.00 0.00 0.00 0.00 0.00 0.00 0.00 0.00 0.00 0.00 0.00 0.00 0.00 0.00 0.00 0.00 0.00 0.00 0.00 0.00 0.00 0.00 0.00 0.00 0.00 0.00 0.00 0.00 0.00 0.00 0.00 0.00 0.00 0.00 0.00 0.00 0.00 0.00 0.00 0.00 0.00 0.00 0.00 0.00 0.00 0.00 0.00 0.00
0.00 0.00 0.00 0.00 0.00 0.00 0.00 0.00 0.00 0.00 0.00 0.00 0.00 0.00 0.00 0.00 0.00 0.00 0.00 0.00 0.00 0.00 0.00 0.00 0.00 0.00 0.00 0.00 0.00 0.00 0.00 0.00 0.00 0.00 0.00 0.00 0.00 0.00 0.00 0.00 0.00 0.00 0.00 0.00 0.00 0.00 0.00 0.00 0.00
MSLP
1013.34 1014.10 1015.07 1016.10 1017.06 1017.84 1018.36 1018.58 1018.54 1018.31 1017.98 1017.66 1017.42 1017.29 1017.27 1017.33 1017.42 1017.48 1017.50 1017.45 1017.38 1017.32 1017.32 1017.40 1017.61 1017.91 1018.29 1018.71 1019.11 1019.46 1019.75 1019.98 1020.16 1020.31 1020.47 1020.64 1020.84 1021.05 1021.27 1021.45 1021.60 1021.70 1021.74 1021.73 1021.69 1021.63 1021.57 1021.52 1021.50
1013.76 1014.68 1015.72 1016.76 1017.64 1018.27 1018.58 1018.57 1018.29 1017.85 1017.36 1016.92 1016.62 1016.48 1016.50 1016.61 1016.78 1016.93 1017.03 1017.07 1017.08 1017.10 1017.17 1017.32 1017.59 1017.95 1018.37 1018.82 1019.26 1019.64 1019.95 1020.20 1020.39 1020.56 1020.73 1020.92 1021.12 1021.34 1021.56 1021.76 1021.92 1022.04 1022.10 1022.11 1022.08 1022.02 1021.96 1021.91 1021.88
1014.28 1015.28 1016.35 1017.32 1018.07 1018.51 1018.61 1018.38 1017.91 1017.31 1016.72 1016.23 1015.92 1015.81 1015.87 1016.05 1016.29 1016.51 1016.68 1016.80 1016.88 1016.97 1017.11 1017.33 1017.65 1018.05 1018.51 1018.98 1019.43 1019.82 1020.15 1020.40 1020.61 1020.79 1020.97 1021.16 1021.36 1021.58 1021.80 1021.99 1022.15 1022.27 1022.33 1022.35 1022.33 1022.29 1022.25 1022.21 1022.19
1014.85 1015.88 1016.90 1017.75 1018.34 1018.58 1018.48 1018.07 1017.47 1016.79 1016.16 1015.68 1015.41 1015.36 1015.48 1015.72 1016.01 1016.28 1016.51 1016.68 1016.82 1016.96 1017.16 1017.43 1017.78 1018.21 1018.68 1019.15 1019.60 1019.98 1020.31 1020.57 1020.79 1020.98 1021.17 1021.37 1021.58 1021.79 1021.99 1022.17 1022.32 1022.43 1022.49 1022.51 1022.51 1022.48 1022.46 1022.44 1022.45
1015.42 1016.42 1017.33 1018.03 1018.43 1018.48 1018.21 1017.69 1017.02 1016.33 1015.74 1015.34 1015.15 1015.17 1015.36 1015.65 1015.97 1016.26 1016.51 1016.70 1016.88 1017.06 1017.30 1017.60 1017.98 1018.41 1018.87 1019.32 1019.74 1020.10 1020.41 1020.67 1020.90 1021.11 1021.33 1021.55 1021.77 1021.98 1022.18 1022.34 1022.47 1022.56 1022.61 1022.64 1022.64 1022.63 1022.62 1022.63 1022.67
1015.93 1016.84 1017.60 1018.12 1018.33 1018.23 1017.85 1017.27 1016.61 1015.99 1015.50 1015.20 1015.12 1015.23 1015.48 1015.79 1016.12 1016.40 1016.64 1016.84 1017.03 1017.23 1017.49 1017.81 1018.20 1018.62 1019.05 1019.46 1019.83 1020.16 1020.44 1020.70 1020.94 1021.19 1021.44 1021.69 1021.94 1022.17 1022.37 1022.52 1022.63 1022.70 1022.74 1022.75 1022.76 1022.76 1022.78 1022.81 1022.87
1016.32 1017.10 1017.69 1018.02 1018.07 1017.84 1017.40 1016.83 1016.24 1015.74 1015.39 1015.24 1015.28 1015.46 1015.75 1016.07 1016.36 1016.62 1016.83 1017.01 1017.19 1017.41 1017.69 1018.02 1018.40 1018.80 1019.19 1019.55 1019.88 1020.16 1020.42 1020.67 1020.93 1021.22 1021.52 1021.82 1022.10 1022.36 1022.56 1022.71 1022.80 1022.85 1022.87 1022.88 1022.88 1022.89 1022.92 1022.97 1023.04
1016.55 1017.17 1017.59 1017.75 1017.66 1017.35 1016.90 1016.39 1015.91 1015.56 1015.37 1015.36 1015.50 1015.75 1016.05 1016.35 1016.60 1016.80 1016.97 1017.13 1017.31 1017.54 1017.83 1018.17 1018.55 1018.93 1019.29 1019.60 1019.88 1020.12 1020.35 1020.60 1020.89 1021.21 1021.56 1021.91 1022.24 1022.52 1022.73 1022.88 1022.96 1022.99 1022.99 1022.98 1022.98 1023.00 1023.04 1023.10 1023.17
1016.61 1017.08 1017.33 1017.35 1017.16 1016.81 1016.38 1015.95 1015.60 1015.40 1015.36 1015.48 1015.70 1015.99 1016.28 1016.53 1016.73 1016.88 1017.00 1017.13 1017.31 1017.55 1017.87 1018.23 1018.62 1018.99 1019.32 1019.60 1019.84 1020.05 1020.27 1020.52 1020.82 1021.17 1021.56 1021.95 1022.31 1022.62 1022.84 1022.98 1023.05 1023.07 1023.06 1023.04 1023.04 1023.07 1023.11 1023.17 1023.24
1016.56 1016.88 1016.99 1016.90 1016.64 1016.28 1015.89 1015.56 1015.33 1015.26 1015.34 1015.54 1015.82 1016.11 1016.37 1016.57 1016.71 1016.80 1016.88 1016.99 1017.17 1017.44 1017.78 1018.18 1018.59 1018.97 1019.30 1019.56 1019.78 1019.97 1020.17 1020.42 1020.73 1021.10 1021.51 1021.92 1022.30 1022.62 1022.85 1022.99 1023.05 1023.06 1023.04 1023.03 1023.03 1023.06 1023.11 1023.17 1023.24
1016.44 1016.65 1016.65 1016.48 1016.18 1015.83 1015.49 1015.24 1015.12 1015.14 1015.29 1015.54 1015.82 1016.09 1016.31 1016.45 1016.52 1016.56 1016.61 1016.72 1016.91 1017.20 1017.58 1018.01 1018.46 1018.86 1019.21 1019.48 1019.69 1019.88 1020.08 1020.32 1020.63 1021.00 1021.40 1021.82 1022.20 1022.51 1022.73 1022.86 1022.92 1022.93 1022.92 1022.92 1022.94 1022.98 1023.04 1023.11 1023.16
1016.34 1016.47 1016.40 1016.18 1015.87 1015.53 1015.24 1015.05 1014.98 1015.05 1015.24 1015.48 1015.75 1015.97 1016.13 1016.22 1016.24 1016.24 1016.27 1016.37 1016.57 1016.88 1017.29 1017.75 1018.23 1018.67 1019.04 1019.34 1019.58 1019.78 1019.98 1020.22 1020.51 1020.86 1021.24 1021.63 1021.99 1022.28 1022.49 1022.62 1022.68 1022.70 1022.72 1022.74 1022.78 1022.84 1022.92 1022.98 1023.03
1016.35 1016.41 1016.30 1016.05 1015.74 1015.43 1015.17 1015.00 1014.96 1015.03 1015.20 1015.41 1015.63 1015.80 1015.91 1015.95 1015.94 1015.91 1015.92 1016.01 1016.20 1016.52 1016.94 1017.42 1017.93 1018.40 1018.82 1019.16 1019.43 1019.66 1019.88 1020.12 1020.39 1020.71 1021.05 1021.39 1021.71 1021.97 1022.16 1022.29 1022.37 1022.42 1022.46 1022.52 1022.59 1022.68 1022.77 1022.84 1022.88
1016.49 1016.52 1016.38 1016.14 1015.84 1015.54 1015.28 1015.12 1015.06 1015.09 1015.21 1015.36 1015.52 1015.64 1015.71 1015.72 1015.69 1015.65 1015.64 1015.71 1015.89 1016.19 1016.59 1017.06 1017.58 1018.08 1018.54 1018.93 1019.26 1019.53 1019.78 1020.02 1020.28 1020.56 1020.85 1021.14 1021.41 1021.64 1021.82 1021.96 1022.05 1022.14 1022.23 1022.32 1022.43 1022.55 1022.65 1022.72 1022.75
1016.77 1016.77 1016.63 1016.40 1016.11 1015.82 1015.56 1015.36 1015.25 1015.22 1015.26 1015.34 1015.44 1015.53 1015.58 1015.58 1015.55 1015.51 1015.49 1015.54 1015.68 1015.92 1016.27 1016.72 1017.21 1017.73 1018.23 1018.68 1019.07 1019.40 1019.69 1019.95 1020.20 1020.45 1020.69 1020.93 1021.16 1021.36 1021.53 1021.68 1021.81 1021.94 1022.07 1022.21 1022.36 1022.49 1022.61 1022.68 1022.69
1017.12 1017.12 1016.99 1016.77 1016.50 1016.21 1015.93 1015.68 1015.49 1015.37 1015.32 1015.33 1015.38 1015.44 1015.49 1015.52 1015.52 1015.50 1015.48 1015.50 1015.58 1015.76 1016.04 1016.42 1016.88 1017.40 1017.93 1018.43 1018.90 1019.30 1019.64 1019.94 1020.19 1020.41 1020.62 1020.82 1021.01 1021.19 1021.36 1021.53 1021.70 1021.87 1022.04 1022.22 1022.39 1022.54 1022.65 1022.71 1022.71
1017.48 1017.48 1017.38 1017.19 1016.94 1016.64 1016.32 1016.00 1015.72 1015.49 1015.33 1015.27 1015.27 1015.33 1015.41 1015.50 1015.55 1015.57 1015.57 1015.56 1015.60 1015.70 1015.89 1016.20 1016.62 1017.12 1017.67 1018.23 1018.76 1019.24 1019.65 1019.99 1020.26 1020.48 1020.66 1020.83 1021.00 1021.16 1021.34 1021.53 1021.73 1021.94 1022.15 1022.35 1022.53 1022.68 1022.79 1022.84 1022.82
1017.75 1017.78 1017.71 1017.57 1017.34 1017.04 1016.67 1016.26 1015.86 1015.51 1015.24 1015.09 1015.06 1015.13 1015.26 1015.42 1015.56 1015.66 1015.70 1015.70 1015.69 1015.73 1015.85 1016.08 1016.44 1016.92 1017.49 1018.09 1018.70 1019.25 1019.73 1020.12 1020.41 1020.64 1020.81 1020.96 1021.12 1021.28 1021.47 1021.68 1021.90 1022.14 1022.36 1022.57 1022.76 1022.90 1022.99 1023.02 1022.99
1017.88 1017.95 1017.95 1017.87 1017.67 1017.35 1016.93 1016.42 1015.88 1015.39 1015.00 1014.75 1014.68 1014.76 1014.96 1015.22 1015.48 1015.68 1015.80 1015.84 1015.83 1015.83 1015.89 1016.06 1016.38 1016.84 1017.41 1018.05 1018.71 1019.33 1019.87 1020.31 1020.63 1020.87 1021.04 1021.19 1021.34 1021.51 1021.70 1021.93 1022.17 1022.41 1022.64 1022.85 1023.01 1023.14 1023.21 1023.23 1023.19
1017.83 1017.98 1018.07 1018.06 1017.90 1017.58 1017.09 1016.47 1015.78 1015.13 1014.59 1014.24 1014.11 1014.21 1014.48 1014.85 1015.24 1015.58 1015.81 1015.94 1015.97 1015.97 1016.01 1016.14 1016.43 1016.86 1017.43 1018.10 1018.80 1019.47 1020.05 1020.53 1020.88 1021.13 1021.32 1021.46 1021.61 1021.78 1021.98 1022.22 1022.46 1022.70 1022.92 1023.11 1023.25 1023.35 1023.40 1023.41 1023.38
1017.63 1017.88 1018.08 1018.16 1018.06 1017.73 1017.17 1016.42 1015.58 1014.75 1014.05 1013.57 1013.38 1013.47 1013.80 1014.29 1014.84 1015.33 1015.71 1015.96 1016.08 1016.13 1016.18 1016.30 1016.56 1016.98 1017.55 1018.22 1018.93 1019.63 1020.24 1020.74 1021.12 1021.38 1021.57 1021.72 1021.87 1022.04 1022.25 1022.48 1022.72 1022.95 1023.15 1023.31 1023.42 1023.48 1023.52 1023.53 1023.52
1017.32 1017.70 1018.02 1018.21 1018.16 1017.83 1017.21 1016.34 1015.33 1014.32 1013.44 1012.83 1012.55 1012.63 1013.00 1013.60 1014.29 1014.95 1015.50 1015.89 1016.13 1016.26 1016.36 1016.50 1016.76 1017.16 1017.71 1018.37 1019.08 1019.77 1020.39 1020.90 1021.28 1021.55 1021.75 1021.90 1022.06 1022.24 1022.45 1022.68 1022.91 1023.12 1023.29 1023.41 1023.49 1023.53 1023.55 1023.57 1023.58
1016.97 1017.48 1017.94 1018.23 1018.25 1017.92 1017.24 1016.26 1015.09 1013.90 1012.86 1012.10 1011.73 1011.77 1012.17 1012.85 1013.67 1014.49 1015.21 1015.76 1016.13 1016.36 1016.53 1016.70 1016.96 1017.35 1017.88 1018.50 1019.19 1019.86 1020.47 1020.96 1021.35 1021.62 1021.82 1021.99 1022.16 1022.34 1022.56 1022.79 1023.01 1023.20 1023.34 1023.43 1023.47 1023.49 1023.50 1023.52 1023.55
1016.62 1017.27 1017.85 1018.25 1018.33 1018.01 1017.28 1016.21 1014.91 1013.57 1012.37 1011.49 1011.02 1011.00 1011.41 1012.14 1013.06 1014.01 1014.87 1015.57 1016.08 1016.42 1016.65 1016.87 1017.14 1017.51 1018.00 1018.59 1019.23 1019.87 1020.45 1020.93 1021.31 1021.58 1021.80 1021.97 1022.16 1022.36 1022.58 1022.81 1023.02 1023.19 1023.31 1023.37 1023.39 1023.38 1023.37 1023.39 1023.45
1016.31 1017.06 1017.76 1018.23 1018.36 1018.07 1017.32 1016.18 1014.80 1013.35 1012.03 1011.04 1010.48 1010.41 1010.79 1011.54 1012.52 1013.56 1014.53 1015.35 1015.96 1016.40 1016.70 1016.96 1017.24 1017.59 1018.05 1018.60 1019.20 1019.79 1020.34 1020.81 1021.18 1021.46 1021.68 1021.88 1022.08 1022.30 1022.53 1022.76 1022.97 1023.13 1023.23 1023.27 1023.26 1023.23 1023.20 1023.22 1023.27
1016.01 1016.84 1017.60 1018.14 1018.32 1018.04 1017.30 1016.14 1014.72 1013.21 1011.83 1010.76 1010.14 1010.01 1010.36 1011.10 1012.09 1013.17 1014.20 1015.09 1015.78 1016.28 1016.64 1016.93 1017.22 1017.57 1018.00 1018.52 1019.08 1019.64 1020.17 1020.62 1020.99 1021.28 1021.52 1021.74 1021.96 1022.20 1022.44 1022.68 1022.88 1023.04 1023.12 1023.14 1023.11 1023.06 1023.01 1023.01 1023.05
1015.69 1016.56 1017.36 1017.92 1018.13 1017.88 1017.16 1016.02 1014.61 1013.11 1011.72 1010.63 1009.97 1009.80 1010.10 1010.80 1011.76 1012.82 1013.86 1014.77 1015.50 1016.04 1016.45 1016.77 1017.08 1017.43 1017.86 1018.35 1018.89 1019.44 1019.95 1020.40 1020.78 1021.09 1021.35 1021.59 1021.83 1022.07 1022.32 1022.56 1022.77 1022.92 1023.00 1023.00 1022.96 1022.88 1022.81 1022.78 1022.79
1015.32 1016.18 1016.97 1017.53 1017.73 1017.51 1016.83 1015.76 1014.41 1012.97 1011.64 1010.57 1009.91 1009.70 1009.95 1010.58 1011.47 1012.48 1013.48 1014.37 1015.10 1015.67 1016.10 1016.45 1016.79 1017.17 1017.61 1018.11 1018.66 1019.21 1019.73 1020.20 1020.59 1020.92 1021.20 1021.45 1021.69 1021.94 1022.20 1022.43 1022.63 1022.77 1022.84 1022.84 1022.79 1022.69 1022.60 1022.52 1022.49
1014.87 1015.68 1016.40 1016.91 1017.10 1016.89 1016.26 1015.28 1014.05 1012.72 1011.48 1010.48 1009.85 1009.63 1009.82 1010.37 1011.17 1012.09 1013.01 1013.85 1014.56 1015.13 1015.59 1015.99 1016.38 1016.80 1017.28 1017.83 1018.40 1018.98 1019.53 1020.01 1020.43 1020.77 1021.06 1021.32 1021.56 1021.80 1022.04 1022.26 1022.44 1022.58 1022.64 1022.64 1022.57 1022.46 1022.34 1022.24 1022.16
1014.33 1015.04 1015.66 1016.09 1016.23 1016.02 1015.46 1014.57 1013.47 1012.29 1011.19 1010.29 1009.71 1009.49 1009.64 1010.10 1010.78 1011.59 1012.42 1013.20 1013.88 1014.45 1014.95 1015.40 1015.86 1016.35 1016.91 1017.51 1018.14 1018.76 1019.34 1019.86 1020.29 1020.64 1020.93 1021.18 1021.41 1021.62 1021.83 1022.03 1022.19 1022.31 1022.36 1022.36 1022.29 1022.17 1022.04 1021.90 1021.78
Thickness
5740 5740 5738 5730 5707 5686 5687 5699 5706 5711 5716 5725 5727 5721 5717 5717 5715 5715 5729 5731 5731 5728 5724 5721 5718 5715 5712 5709 5707 5704 5702 5700 5698 5696 5694 5693 5691 5690 5689 5688 5687 5686 5685 5684 5684 5683 5683 5682 5682
5740 5739 5732 5717 5692 5677 5688 5702 5707 5715 5724 5726 5725 5723 5722 5724 5729 5728 5727 5727 5728 5726 5722 5719 5716 5712 5709 5706 5703 5701 5698 5696 5694 5692 5690 5688 5687 5685 5684 5682 5681 5679 5678 5678 5677 5676 5676 5675 5675
5740 5738 5722 5704 5690 5685 5698 5711 5713 5723 5728 5727 5723 5724 5725 5726 5729 5730 5731 5728 5726 5723 5719 5717 5713 5710 5707 5704 5701 5698 5695 5692 5690 5688 5686 5684 5682 5680 5678 5676 5675 5674 5672 5671 5671 5670 5669 5669 5668
5736 5727 5715 5700 5697 5700 5708 5718 5720 5724 5727 5728 5724 5720 5724 5729 5730 5731 5731 5727 5724 5720 5717 5714 5711 5708 5704 5701 5698 5695 5692 5689 5686 5683 5681 5679 5677 5675 5672 5671 5669 5668 5667 5666 5665 5664 5663 5662 5662
5730 5716 5702 5693 5700 5709 5715 5721 5723 5722 5723 5725 5723 5719 5722 5728 5730 5730 5728 5725 5722 5718 5714 5711 5709 5705 5702 5698 5695 5691 5688 5685 5682 5680 5677 5674 5672 5669 5667 5665 5663 5662 5661 5660 5659 5658 5657 5657 5656
5716 5707 5690 5689 5700 5711 5718 5724 5723 5722 5723 5724 5720 5718 5723 5728 5727 5725 5725 5722 5719 5716 5712 5709 5706 5702 5699 5695 5692 5688 5685 5682 5679 5676 5673 5670 5667 5665 5662 5660 5658 5657 5655 5654 5653 5652 5652 5651 5650
5710 5699 5692 5696 5697 5707 5719 5724 5723 5722 5722 5723 5723 5717 5721 5726 5725 5723 5721 5718 5715 5712 5709 5706 5703 5700 5696 5692 5688 5685 5681 5678 5675 5672 5669 5666 5663 5660 5658 5656 5653 5652 5650 5649 5648 5647 5646 5646 5645
5713 5700 5695 5693 5698 5706 5718 5723 5725 5723 5722 5725 5725 5717 5718 5725 5722 5719 5715 5713 5710 5708 5706 5703 5700 5697 5693 5689 5685 5681 5678 5674 5671 5668 5665 5661 5658 5656 5654 5651 5649 5647 5645 5644 5643 5642 5641 5640 5639
5714 5692 5687 5697 5701 5708 5718 5720 5723 5725 5723 5722 5723 5723 5724 5722 5719 5715 5710 5707 5705 5704 5702 5700 5697 5694 5690 5686 5682 5678 5674 5671 5667 5664 5660 5657 5654 5651 5649 5646 5644 5642 5641 5639 5638 5637 5636 5635 5634
5702 5686 5696 5706 5709 5711 5716 5717 5719 5720 5718 5718 5720 5721 5720 5718 5716 5713 5709 5706 5703 5701 5699 5697 5694 5691 5687 5682 5678 5674 5670 5667 5663 5660 5656 5653 5650 5647 5644 5642 5640 5638 5636 5635 5633 5632 5631 5629 5628
5702 5693 5702 5708 5713 5713 5713 5715 5718 5715 5711 5715 5717 5719 5716 5714 5712 5711 5708 5706 5704 5701 5698 5695 5691 5688 5683 5679 5675 5670 5666 5663 5659 5656 5652 5649 5646 5643 5640 5638 5636 5634 5632 5630 5629 5627 5626 5624 5623
5697 5699 5703 5707 5712 5710 5710 5712 5712 5712 5714 5721 5721 5719 5714 5712 5710 5709 5707 5705 5701 5698 5696 5693 5688 5684 5680 5676 5671 5667 5662 5659 5655 5652 5648 5645 5642 5638 5636 5633 5631 5629 5627 5626 5624 5622 5620 5619 5618
5692 5696 5701 5705 5705 5706 5707 5706 5708 5711 5716 5717 5716 5713 5711 5709 5708 5707 5705 5702 5699 5696 5693 5690 5686 5681 5676 5672 5667 5663 5659 5655 5652 5648 5645 5641 5638 5635 5632 5629 5627 5625 5623 5621 5619 5617 5615 5614 5612
5690 5692 5693 5696 5698 5700 5699 5700 5702 5709 5712 5710 5709 5707 5706 5704 5704 5703 5701 5698 5696 5694 5691 5688 5683 5678 5673 5668 5663 5659 5655 5651 5648 5644 5641 5638 5635 5631 5628 5625 5623 5621 5618 5616 5614 5612 5610 5608 5606
5685 5682 5683 5689 5691 5694 5693 5691 5697 5707 5705 5703 5702 5701 5701 5700 5699 5699 5698 5697 5694 5692 5688 5684 5680 5674 5669 5664 5659 5655 5651 5647 5643 5640 5637 5634 5631 5628 5624 5621 5618 5616 5613 5611 5608 5606 5604 5602 5600
5673 5666 5665 5678 5685 5687 5683 5680 5697 5702 5698 5696 5694 5693 5694 5695 5695 5694 5694 5693 5691 5688 5684 5681 5676 5670 5665 5660 5655 5650 5646 5642 5639 5635 5632 5629 5626 5623 5619 5616 5613 5610 5607 5605 5602 5599 5596 5595 5593
5652 5648 5654 5665 5678 5677 5674 5676 5691 5693 5692 5690 5688 5686 5687 5688 5689 5689 5689 5688 5686 5684 5680 5676 5671 5665 5660 5654 5649 5645 5641 5637 5633 5630 5627 5624 5621 5618 5614 5611 5607 5604 5601 5597 5595 5592 5589 5587 5585
5641 5642 5646 5652 5666 5667 5664 5669 5683 5686 5684 5684 5682 5680 5680 5682 5684 5683 5682 5681 5680 5677 5674 5670 5665 5659 5654 5648 5643 5637 5633 5630 5627 5624 5621 5617 5614 5611 5608 5604 5600 5597 5593 5589 5586 5583 5581 5579 5577
5643 5639 5639 5647 5657 5656 5656 5664 5679 5683 5679 5679 5677 5676 5675 5677 5678 5676 5674 5673 5671 5669 5666 5663 5658 5652 5648 5642 5636 5631 5626 5622 5619 5616 5613 5610 5607 5604 5600 5596 5592 5589 5585 5581 5578 5575 5572 5569 5568
5635 5632 5633 5641 5649 5648 5648 5657 5674 5679 5679 5683 5683 5679 5676 5672 5670 5669 5666 5665 5664 5661 5659 5655 5651 5647 5642 5638 5632 5627 5621 5615 5612 5608 5605 5602 5599 5596 5592 5588 5584 5580 5576 5572 5568 5565 5561 5558 5556
5626 5625 5629 5631 5639 5641 5640 5649 5667 5678 5679 5681 5681 5680 5675 5672 5668 5663 5659 5657 5655 5653 5651 5649 5644 5640 5636 5631 5625 5619 5613 5608 5604 5600 5596 5593 5591 5588 5584 5580 5576 5571 5567 5563 5559 5555 5552 5547 5544
5619 5628 5627 5627 5622 5618 5628 5622 5656 5668 5672 5676 5676 5672 5670 5669 5664 5658 5654 5650 5648 5645 5643 5641 5637 5632 5628 5624 5620 5615 5608 5602 5596 5591 5588 5585 5582 5579 5575 5571 5567 5562 5558 5553 5549 5546 5541 5537 5533
5622 5628 5622 5620 5615 5610 5616 5612 5643 5659 5664 5674 5674 5670 5667 5663 5660 5656 5651 5646 5642 5638 5635 5632 5629 5624 5621 5617 5613 5608 5601 5595 5588 5584 5580 5576 5573 5569 5565 5561 5557 5553 5548 5544 5540 5536 5531 5527 5523
5621 5615 5607 5598 5597 5595 5610 5603 5623 5650 5664 5671 5673 5667 5662 5657 5653 5649 5643 5638 5634 5629 5627 5624 5621 5616 5613 5609 5605 5601 5594 5587 5581 5576 5571 5567 5563 5560 5556 5552 5547 5543 5539 5535 5530 5526 5522 5517 5513
5613 5601 5587 5586 5583 5589 5605 5602 5622 5656 5663 5664 5667 5664 5657 5651 5646 5642 5636 5632 5627 5623 5620 5617 5614 5609 5605 5601 5597 5593 5587 5581 5576 5570 5564 5559 5554 5550 5546 5542 5537 5533 5529 5525 5521 5516 5512 5507 5502
5604 5601 5585 5580 5578 5584 5597 5597 5631 5654 5658 5659 5660 5659 5652 5645 5642 5639 5634 5629 5624 5619 5615 5611 5608 5603 5598 5594 5589 5585 5580 5574 5568 5563 5557 5551 5546 5542 5538 5533 5528 5524 5520 5515 5511 5506 5502 5497 5492
5597 5594 5598 5583 5578 5577 5588 5602 5627 5653 5654 5655 5653 5649 5644 5641 5637 5634 5629 5624 5619 5615 5610 5606 5602 5597 5591 5587 5582 5576 5571 5566 5560 5554 5549 5543 5538 5534 5529 5524 5519 5514 5510 5506 5501 5496 5491 5487 5482
5602 5595 5580 5576 5569 5569 5582 5594 5614 5639 5646 5648 5646 5642 5638 5635 5631 5627 5624 5619 5615 5610 5605 5600 5596 5592 5586 5580 5575 5570 5563 5558 5552 5546 5540 5534 5529 5525 5520 5514 5509 5505 5500 5496 5491 5486 5482 5476 5472
5589 5587 5585 5575 5570 5568 5571 5594 5624 5631 5638 5638 5639 5638 5634 5630 5628 5625 5620 5615 5609 5604 5598 5594 5589 5584 5578 5573 5567 5561 5555 5549 5543 5537 5531 5526 5521 5515 5510 5505 5500 5495 5490 5486 5481 5476 5471 5466 5462
5594 5590 5583 5573 5569 5564 5566 5590 5630 5630 5631 5632 5634 5634 5631 5627 5624 5620 5614 5608 5603 5598 5593 5588 5583 5578 5572 5566 5559 5553 5546 5540 5534 5528 5523 5517 5512 5506 5501 5495 5490 5485 5481 5476 5471 5466 5462 5457 5452